Temp
60 60 60 60 60 60 60 60 60 60 60 60 60 60 60 60 60 71 68 70 69 65 68 76 75 75 75 75 79 78 67 64 71 74 77 88 82 90 91 89 93 96 95 98 95
60 60 60 59 59 59 59 59 59 60 60 60 60 60 60 60 68 69 68 66 65 65 73 71 69 71 71 71 74 70 65 68 79 81 79 83 83 86 84 84 87 90 97 99 96
59 59 59 59 59 59 59 59 59 59 60 60 60 60 59 63 65 69 67 66 66 68 75 73 72 70 66 71 71 70 63 74 77 80 81 80 82 87 83 81 86 86 92 97 95
59 59 59 59 59 58 59 59 59 59 60 60 59 59 59 67 60 75 69 67 67 74 73 70 69 66 64 63 70 63 69 71 75 78 75 76 82 81 82 84 91 92 94 97 94
58 59 58 58 59 58 58 59 59 59 59 59 59 59 63 65 69 79 69 70 74 73 71 69 66 66 61 66 67 64 67 70 73 73 74 77 75 77 80 86 90 91 91 91 92
58 58 58 58 58 58 58 58 58 58 58 59 59 59 63 61 80 79 76 74 74 73 72 72 68 69 64 63 63 68 67 67 70 71 72 70 73 75 79 84 83 85 87 90 91
58 57 57 57 58 57 57 57 57 57 58 59 60 64 61 68 80 79 76 76 76 74 70 74 73 67 67 62 68 66 59 64 66 68 67 72 66 68 79 82 80 82 84 87 90
57 57 57 57 57 57 57 57 56 58 59 60 61 65 60 77 79 75 78 75 77 76 73 74 73 68 66 68 64 59 60 54 66 68 69 68 58 74 81 79 77 80 84 86 89
57 57 56 57 57 57 56 56 59 60 61 62 63 62 62 69 71 78 77 72 74 72 71 71 69 64 65 57 55 59 50 54 60 70 68 65 61 73 80 79 77 79 82 85 87
57 56 56 56 56 56 55 56 60 62 65 68 66 57 68 67 74 75 81 74 69 70 64 63 63 58 60 56 46 52 53 56 54 64 65 63 63 71 77 79 77 79 82 84 86
57 56 56 56 56 55 60 70 67 64 64 63 65 64 67 74 77 73 78 72 70 66 57 62 53 52 56 59 58 56 54 52 57 64 62 61 63 68 73 75 75 79 81 83 85
56 56 56 56 55 55 64 69 67 68 57 69 68 66 70 71 61 70 75 63 62 55 61 54 48 59 61 60 57 55 52 52 57 61 61 60 60 67 71 73 75 76 79 82 85
55 55 55 55 55 61 69 68 73 72 58 62 65 64 66 69 63 65 69 65 59 55 53 45 53 60 56 54 52 53 50 50 50 57 61 58 56 61 68 71 74 77 80 83 84
55 55 55 54 59 72 70 71 75 70 53 56 60 64 67 70 60 70 72 65 59 53 53 50 59 56 54 49 50 43 56 54 52 50 45 59 45 59 65 67 70 74 78 81 84
54 55 54 52 68 72 68 74 73 67 36 58 61 74 71 63 63 63 70 64 53 54 49 49 54 50 48 50 54 47 57 53 52 49 49 51 50 58 67 65 68 73 79 82 85
54 54 54 64 71 71 73 71 68 50 35 53 60 60 60 63 61 64 62 64 62 53 53 54 62 58 55 56 56 56 53 52 51 48 37 48 51 54 61 64 70 76 80 83 86
54 54 59 70 66 74 72 67 51 44 59 51 53 58 57 55 55 57 54 50 44 38 40 51 55 59 56 51 55 54 45 34 30 30 35 52 48 55 66 71 74 76 80 84 86
52 52 56 71 75 71 69 60 43 50 49 56 55 55 50 53 52 53 50 47 53 48 42 37 39 52 56 52 46 49 48 40 28 34 41 52 43 55 68 74 76 75 79 84 85
52 72 73 72 71 70 64 52 45 48 52 49 52 49 50 52 51 48 49 48 49 45 36 38 36 55 56 56 52 46 41 55 41 47 41 48 54 63 69 69 71 72 75 80 84
62 67 70 72 70 68 60 43 49 53 53 52 42 48 42 45 44 43 45 52 47 48 44 38 35 52 53 55 56 48 53 39 41 31 31 46 49 51 59 64 69 72 75 79 84
64 65 69 72 70 67 47 49 50 56 54 47 46 43 44 41 44 42 44 51 51 42 46 39 36 43 48 45 46 42 41 47 46 45 35 38 49 64 64 67 69 73 77 80 83
62 62 69 73 61 61 52 48 47 52 55 51 50 47 44 43 40 41 41 46 50 46 37 42 36 33 41 54 56 50 47 48 41 39 45 42 42 66 68 72 74 75 77 82 84
58 62 70 69 46 50 51 49 49 49 50 48 47 50 51 41 33 43 46 53 48 42 36 38 34 32 39 45 47 40 41 50 48 47 41 39 45 59 68 71 75 76 79 78 80
59 56 63 62 57 48 44 48 47 54 50 51 50 52 44 39 45 38 40 44 45 42 44 41 34 35 34 39 39 36 39 46 43 36 44 48 48 51 52 62 72 73 77 77 78
59 52 49 51 54 49 49 47 47 45 50 51 49 49 44 34 36 36 42 41 44 45 41 37 33 40 43 45 45 43 43 37 40 47 41 48 47 42 48 49 63 73 74 76 78
54 51 57 51 51 49 46 49 46 48 45 47 46 48 47 36 37 34 38 39 37 42 36 37 34 37 36 43 40 36 43 47 43 45 49 52 46 47 53 57 62 71 73 73 61
59 58 51 50 51 50 50 46 46 48 50 51 48 43 43 47 48 48 50 47 41 34 33 32 34 35 36 38 36 34 44 49 50 52 54 44 44 49 48 51 64 68 70 63 58
MSLP
1021.03 1020.57 1020.12 1019.64 1019.16 1018.75 1018.37 1017.95 1017.58 1017.25 1016.92 1016.67 1016.35 1016.09 1015.90 1015.59 1014.84 1013.52 1012.47 1012.81 1012.90 1013.16 1012.74 1011.49 1011.20 1010.87 1010.60 1009.64 1008.84 1008.43 1005.79 1003.02 1001.83 1001.00 1000.82 1000.77 1000.86 1000.88 1001.51 1000.92 1000.57 1000.45 1000.33 1000.46 1002.11
1021.01 1020.48 1019.99 1019.45 1018.93 1018.54 1018.15 1017.73 1017.37 1017.00 1016.62 1016.37 1016.09 1015.79 1015.57 1015.27 1013.92 1012.38 1012.61 1012.95 1013.13 1013.16 1011.90 1011.16 1010.49 1010.57 1009.76 1009.26 1008.58 1007.68 1005.35 1003.04 1002.40 1001.64 1001.23 1001.17 1001.19 1000.92 1001.07 1000.84 1000.29 1000.26 1000.25 1000.84 1001.59
1020.95 1020.38 1019.83 1019.29 1018.72 1018.39 1018.04 1017.59 1017.18 1016.87 1016.52 1016.27 1015.98 1015.68 1015.53 1015.10 1013.05 1011.43 1012.41 1012.82 1012.97 1012.95 1011.85 1011.42 1010.82 1010.19 1009.37 1008.94 1008.12 1007.27 1005.22 1004.15 1003.16 1002.81 1002.51 1001.99 1001.18 1001.15 1000.74 1000.14 1000.02 1000.07 1000.10 1000.48 1001.16
1020.79 1020.20 1019.65 1019.12 1018.47 1018.03 1017.64 1017.24 1016.95 1016.63 1016.29 1015.99 1015.88 1015.66 1015.41 1014.29 1011.41 1011.01 1012.09 1012.48 1012.63 1012.16 1011.51 1010.93 1010.34 1009.61 1008.92 1008.28 1008.18 1007.48 1006.40 1005.67 1004.77 1003.72 1003.70 1002.67 1002.19 1001.18 1001.11 1000.55 1000.18 1000.34 1000.32 1000.22 1000.69
1020.61 1020.04 1019.47 1018.95 1018.37 1017.84 1017.41 1017.01 1016.66 1016.35 1016.09 1015.82 1015.67 1015.56 1015.02 1012.75 1010.44 1011.00 1011.94 1012.12 1011.95 1011.60 1010.80 1010.19 1009.84 1009.24 1008.50 1007.83 1007.89 1007.19 1006.71 1006.30 1005.51 1005.36 1004.44 1003.71 1002.49 1001.94 1001.34 1001.45 1001.08 1000.87 1000.75 1000.75 1000.92
1020.33 1019.79 1019.20 1018.59 1018.05 1017.55 1016.97 1016.47 1016.24 1016.03 1015.76 1015.58 1015.48 1015.53 1014.26 1011.34 1010.17 1010.86 1011.24 1011.36 1011.12 1010.76 1010.18 1010.02 1009.49 1009.34 1009.00 1008.37 1007.88 1007.01 1006.55 1006.21 1005.85 1005.53 1005.01 1004.24 1002.98 1002.60 1001.70 1001.95 1001.58 1001.35 1000.90 1000.70 1000.79
1019.99 1019.39 1018.80 1018.16 1017.51 1017.00 1016.61 1015.98 1015.60 1015.47 1015.21 1015.14 1015.18 1014.91 1013.27 1010.38 1010.12 1010.64 1010.87 1010.37 1010.29 1010.25 1009.80 1009.55 1009.61 1009.50 1008.65 1008.22 1007.85 1007.57 1006.98 1006.09 1005.51 1005.31 1004.81 1004.76 1002.63 1000.32 1002.00 1001.67 1001.22 1001.13 1000.92 1000.64 1000.36
1019.77 1019.14 1018.47 1017.83 1017.20 1016.58 1016.12 1015.57 1015.05 1014.64 1014.41 1014.58 1014.92 1014.32 1011.54 1010.11 1010.36 1010.51 1010.05 1009.85 1010.06 1010.17 1010.05 1009.87 1009.80 1009.36 1008.77 1008.31 1007.83 1007.19 1006.47 1004.80 1004.03 1004.23 1004.13 1004.75 999.59 1000.63 1000.95 1001.18 1000.82 1000.65 1000.12 999.94 999.81
1019.57 1018.86 1018.11 1017.48 1016.88 1016.34 1015.78 1015.21 1014.51 1014.28 1014.31 1014.53 1014.44 1013.51 1010.24 1010.73 1010.09 1009.27 1009.68 1009.23 1009.21 1009.77 1010.02 1010.02 1009.76 1008.98 1008.40 1008.04 1006.89 1005.80 1004.89 1003.92 1002.88 1002.97 1003.08 1002.99 999.55 1000.78 1000.24 999.77 999.81 999.88 999.76 999.41 999.26
1019.23 1018.56 1017.87 1017.09 1016.47 1015.97 1015.49 1014.83 1014.44 1014.12 1014.25 1013.92 1013.68 1012.97 1009.96 1009.02 1008.89 1008.99 1008.61 1009.06 1008.91 1008.65 1009.45 1009.48 1009.07 1008.17 1007.46 1006.74 1004.98 1004.08 1003.61 1003.45 1003.20 1002.68 1002.54 1001.56 1000.65 1000.50 999.55 998.90 999.13 998.96 998.83 998.64 998.48
1018.82 1018.04 1017.35 1016.68 1015.94 1015.54 1014.69 1014.04 1013.48 1012.53 1012.77 1011.82 1010.99 1010.16 1009.73 1009.12 1009.12 1008.47 1007.94 1007.91 1008.30 1008.27 1007.87 1007.47 1007.83 1006.40 1005.88 1005.53 1005.46 1005.21 1004.57 1003.84 1003.56 1003.02 1002.18 1000.92 1000.14 999.82 999.65 999.08 998.72 998.16 997.87 997.74 997.71
1018.48 1017.66 1016.78 1016.08 1015.42 1015.02 1014.45 1012.64 1012.69 1012.89 1011.37 1010.13 1009.85 1009.73 1009.56 1009.52 1008.83 1007.71 1007.78 1007.85 1007.43 1007.33 1007.10 1007.11 1006.48 1005.88 1005.71 1005.48 1005.19 1004.85 1004.38 1003.61 1003.53 1003.39 1002.09 1001.11 1000.17 999.56 999.08 998.72 998.70 998.25 997.61 997.28 997.21
1018.18 1017.32 1016.32 1015.52 1014.86 1014.43 1013.32 1012.88 1012.88 1012.71 1011.23 1009.49 1009.36 1009.04 1008.72 1009.11 1007.89 1007.18 1007.58 1007.45 1007.29 1006.96 1006.99 1006.96 1006.09 1005.50 1005.62 1005.29 1004.92 1004.61 1004.15 1003.66 1003.72 1003.02 1002.69 1001.66 1000.19 999.39 998.97 999.07 998.65 997.89 997.47 997.10 996.79
1017.84 1016.98 1016.05 1015.03 1014.80 1013.24 1012.60 1013.06 1012.76 1012.73 1010.54 1008.86 1008.49 1008.61 1008.65 1008.03 1007.09 1007.44 1007.20 1007.27 1006.86 1006.74 1007.01 1006.32 1005.42 1005.00 1004.85 1004.76 1005.16 1004.42 1003.91 1003.92 1003.81 1003.26 1001.79 1001.42 998.80 997.73 997.64 997.21 997.49 997.08 996.58 996.45 996.39
1017.52 1016.62 1015.87 1015.10 1013.78 1012.48 1013.11 1012.90 1012.55 1012.33 1009.75 1008.89 1008.17 1008.20 1007.67 1007.58 1007.15 1006.66 1007.48 1007.14 1006.92 1006.57 1007.21 1005.32 1004.67 1004.70 1004.63 1004.38 1004.35 1004.34 1004.14 1004.08 1003.80 1003.21 1002.13 1000.45 998.70 996.30 995.92 995.04 995.60 995.46 995.06 995.32 995.72
1017.17 1016.20 1015.39 1014.19 1013.44 1013.05 1013.01 1012.84 1012.48 1010.70 1008.98 1008.57 1008.34 1007.71 1007.20 1006.92 1006.98 1006.80 1006.89 1007.29 1007.22 1006.86 1006.26 1005.33 1004.77 1004.42 1004.15 1004.09 1004.09 1004.33 1004.16 1004.09 1004.05 1003.36 1001.43 1000.15 998.06 995.76 994.75 994.61 994.25 993.78 994.03 994.39 994.84
1016.85 1015.98 1015.20 1014.06 1013.22 1012.88 1012.71 1011.96 1010.50 1009.37 1009.36 1008.87 1008.68 1008.08 1007.64 1006.91 1007.00 1006.85 1006.87 1006.74 1006.92 1007.00 1005.70 1004.63 1003.71 1003.65 1004.56 1004.01 1004.05 1004.06 1004.13 1003.85 1003.75 1002.77 1000.28 999.15 997.82 995.42 994.24 993.84 993.53 993.08 993.17 993.67 994.18
1016.42 1015.76 1015.16 1013.99 1013.19 1012.91 1012.11 1010.49 1009.58 1009.95 1010.18 1010.12 1009.46 1008.61 1007.88 1007.80 1007.71 1007.23 1006.92 1006.38 1006.32 1007.08 1006.77 1005.61 1004.04 1003.68 1003.72 1003.63 1003.44 1003.30 1003.36 1002.10 1001.27 1000.17 998.87 998.16 996.01 994.75 994.31 993.51 993.56 993.63 993.12 993.17 993.71
1016.02 1014.57 1013.48 1013.38 1013.19 1012.82 1011.22 1009.84 1010.77 1011.06 1011.28 1010.88 1009.81 1008.58 1007.95 1008.12 1008.20 1007.77 1007.11 1006.73 1006.96 1007.95 1008.11 1006.53 1005.40 1003.96 1003.72 1003.35 1003.81 1003.12 1003.11 1001.97 1001.68 999.99 998.49 996.58 995.98 994.41 994.05 994.07 994.07 994.07 993.82 992.79 993.12
1015.90 1014.33 1013.36 1013.47 1013.20 1012.20 1010.77 1011.48 1011.70 1012.11 1011.98 1011.44 1010.64 1009.93 1009.35 1009.19 1008.87 1008.77 1007.88 1007.06 1007.64 1008.66 1009.26 1008.44 1006.43 1004.08 1003.56 1003.49 1003.08 1003.30 1002.95 1002.46 1002.18 1000.21 997.86 995.41 994.24 993.52 993.35 992.99 993.23 993.20 992.96 992.80 992.77
1015.77 1013.55 1013.66 1013.44 1012.88 1011.35 1011.81 1012.21 1012.57 1012.61 1012.67 1012.36 1011.31 1010.90 1010.61 1010.17 1009.69 1009.21 1008.33 1007.70 1008.05 1009.25 1009.46 1009.23 1008.08 1004.99 1004.20 1003.08 1002.39 1003.19 1002.93 1001.99 1001.33 1000.03 998.02 995.26 993.00 992.56 991.90 992.35 992.48 992.79 992.47 992.23 992.39
1015.80 1013.15 1013.97 1013.12 1011.98 1012.57 1012.73 1013.85 1014.36 1013.02 1012.75 1012.58 1012.14 1011.46 1011.21 1011.15 1010.27 1009.66 1008.64 1008.40 1008.81 1009.36 1009.40 1009.15 1008.16 1005.75 1003.65 1002.18 1001.98 1002.05 1001.98 1001.69 1000.70 999.65 998.71 997.27 995.31 993.01 992.51 991.78 991.79 992.24 992.58 992.23 992.60
1016.27 1014.74 1014.34 1013.42 1013.55 1013.60 1014.04 1014.06 1014.17 1013.54 1013.06 1012.67 1012.02 1011.67 1011.52 1011.69 1011.43 1009.68 1008.74 1008.41 1009.34 1009.70 1009.67 1009.37 1008.00 1005.66 1002.89 1002.24 1002.58 1002.50 1002.50 1001.87 1001.15 1000.02 998.66 997.33 995.87 995.58 993.20 992.47 992.07 991.87 992.30 993.07 993.64
1016.90 1014.80 1014.16 1014.67 1015.53 1015.34 1014.95 1014.03 1013.62 1013.43 1013.13 1012.92 1012.16 1011.82 1011.66 1011.57 1011.38 1009.97 1009.29 1009.17 1009.43 1009.52 1009.30 1009.18 1007.72 1006.15 1003.81 1002.51 1002.96 1002.78 1002.60 1001.90 1001.52 1000.37 998.51 996.88 996.70 997.76 996.35 994.52 993.01 992.85 992.73 993.74 994.27
1017.72 1017.10 1017.69 1015.28 1014.77 1015.70 1015.34 1014.65 1013.74 1013.46 1013.27 1012.91 1011.75 1011.27 1011.33 1010.84 1010.37 1009.66 1009.26 1008.95 1008.60 1008.40 1008.69 1008.55 1007.07 1005.22 1003.90 1002.84 1002.39 1001.90 1001.53 1001.70 1000.69 999.49 998.66 997.62 997.92 999.28 998.50 997.73 994.96 993.54 993.91 994.21 994.78
1018.77 1018.64 1017.77 1016.83 1016.25 1015.57 1015.09 1014.26 1014.02 1013.62 1013.72 1012.08 1011.64 1011.17 1011.14 1010.87 1010.45 1008.94 1009.09 1008.47 1008.60 1008.41 1008.72 1008.48 1006.98 1005.43 1003.52 1002.31 1001.98 1001.54 1000.90 1000.02 999.97 999.29 998.38 998.29 999.24 1000.48 999.33 998.12 996.15 994.62 994.76 995.51 997.83
1020.18 1020.17 1019.51 1017.03 1015.94 1015.26 1014.74 1014.95 1014.48 1014.15 1013.18 1012.72 1012.04 1011.36 1010.29 1009.34 1009.02 1008.02 1007.52 1007.41 1008.22 1008.70 1008.48 1008.18 1007.13 1005.34 1002.66 1001.88 1001.25 1000.64 999.10 998.55 998.22 997.92 997.61 998.48 1000.02 1000.66 1000.08 998.29 996.08 995.64 996.23 998.01 999.63
Wind_Speed
18 18 18 18 18 18 17 16 15 14 14 14 14 14 13 13 18 8 1 6 3 3 7 1 3 4 5 13 16 11 15 20 26 25 17 18 15 20 17 22 22 24 21 3 6
19 19 19 19 19 18 17 16 15 14 14 14 14 14 14 14 12 3 7 7 9 6 5 5 3 4 9 11 11 19 17 27 20 17 15 21 17 19 20 18 22 18 20 11 10
19 19 19 20 20 19 17 16 14 14 14 14 13 13 11 13 7 4 10 11 10 8 7 5 5 7 9 12 15 19 25 21 19 16 17 20 18 17 15 20 22 23 21 16 13
20 20 20 20 21 20 17 16 14 14 14 14 13 12 10 7 4 5 9 10 9 9 6 1 4 10 10 12 16 23 22 21 26 22 14 24 21 21 21 20 10 13 15 17 17
21 21 21 20 20 20 18 16 15 14 14 13 11 9 11 8 2 10 9 9 9 8 9 6 8 7 12 10 12 20 22 22 14 17 24 20 26 20 23 20 20 15 14 14 16
21 22 22 22 21 20 18 17 15 15 13 11 9 6 7 11 8 9 9 7 11 10 8 9 9 6 12 12 16 15 10 15 22 24 20 24 27 24 26 19 18 19 22 20 19
21 22 23 23 23 21 19 17 16 16 15 10 8 7 8 11 4 7 7 8 5 9 10 9 10 11 5 11 10 15 18 19 20 20 24 24 28 39 23 20 15 27 23 22 21
22 22 24 24 23 21 20 19 20 13 4 9 10 6 9 4 4 8 5 8 7 8 9 8 8 13 16 11 14 18 17 20 19 22 21 23 37 23 25 26 27 21 20 22 22
22 22 24 24 23 20 18 20 10 5 9 12 9 7 7 7 9 5 5 9 4 5 6 4 9 13 11 15 16 14 16 21 22 20 13 27 30 24 26 15 24 25 25 20 19
23 23 23 24 21 18 18 13 10 13 8 5 3 7 8 4 6 7 9 5 8 6 9 11 9 13 15 14 16 14 14 14 18 14 19 26 26 24 13 22 20 20 23 25 25
26 25 24 24 20 15 12 6 6 8 9 12 17 18 17 11 9 7 15 8 11 12 15 14 11 15 19 18 20 20 22 21 18 15 20 21 20 23 24 14 13 20 17 20 21
28 27 26 23 20 14 7 6 7 9 11 15 12 11 14 10 9 15 4 8 8 13 14 12 18 21 19 20 21 23 24 24 18 22 20 21 17 18 21 22 22 18 18 19 16
27 27 27 24 16 5 4 4 6 8 8 5 3 4 3 6 14 21 5 8 14 15 13 16 22 19 14 16 21 21 23 19 18 15 23 22 23 21 21 20 22 24 20 19 19
27 27 26 25 7 3 2 4 10 6 7 5 2 4 6 13 10 5 15 11 10 13 14 16 19 17 15 18 19 20 19 18 18 17 18 25 19 24 25 25 25 26 23 22 20
29 28 25 10 6 4 6 10 5 6 6 6 2 2 12 15 13 4 2 6 14 17 5 13 11 11 16 19 13 18 14 13 17 17 16 24 18 16 20 19 23 26 27 23 21
30 29 23 5 3 5 8 7 6 7 3 6 5 16 19 13 8 7 8 6 12 16 15 22 19 17 15 13 10 12 14 14 14 15 16 20 19 19 18 18 20 25 25 22 21
31 27 11 4 8 11 7 5 7 4 11 7 15 20 20 14 15 10 15 11 7 7 8 7 15 13 11 13 9 12 10 7 10 10 15 19 22 17 21 18 19 21 20 22 20
32 20 3 3 10 6 4 8 4 7 10 16 15 21 10 12 11 14 16 15 5 9 10 4 4 9 11 17 9 14 17 10 9 14 16 18 14 19 27 14 10 2 9 20 21
27 1 3 11 8 5 9 3 5 9 12 13 20 9 9 17 14 11 15 8 3 2 5 5 7 5 8 8 5 7 15 20 11 15 11 12 18 13 23 22 20 16 12 15 22
7 4 8 15 7 7 5 4 4 5 11 10 8 6 16 17 13 14 11 4 5 7 6 5 9 10 2 6 13 18 8 11 9 8 14 15 20 16 19 21 19 19 18 19 21
5 5 9 14 6 2 3 5 5 6 9 7 8 8 12 15 15 14 8 13 3 4 7 4 6 5 4 10 13 9 14 12 8 14 6 11 13 17 18 23 22 19 14 16 20
6 4 9 11 3 2 6 7 5 9 6 7 9 11 12 15 14 8 8 9 4 5 5 6 5 7 17 15 10 14 18 18 9 13 13 13 5 16 22 11 22 20 15 12 19
8 4 6 10 5 6 6 4 4 10 9 5 6 5 13 9 9 11 14 9 6 6 4 2 5 6 6 5 5 4 7 20 19 14 12 13 3 15 5 13 12 18 18 11 14
6 5 2 4 3 7 7 5 9 8 10 7 14 13 11 8 15 13 19 10 6 12 19 12 5 14 13 9 1 4 8 21 18 9 15 15 6 13 17 11 13 10 11 13 18
5 5 4 7 5 10 6 5 11 10 4 9 7 10 17 7 19 11 14 22 12 12 1 2 7 15 21 21 17 15 15 4 23 23 15 14 8 11 16 17 20 10 14 17 21
7 6 2 7 8 10 2 8 13 12 7 8 11 20 21 16 17 23 20 20 6 3 1 3 5 5 12 15 16 12 17 16 15 23 24 16 6 4 17 21 16 13 18 20 20
3 1 4 4 7 6 6 8 12 16 9 12 18 20 22 18 25 27 22 19 9 4 2 3 4 5 5 7 7 6 17 16 13 18 17 7 6 8 13 8 14 16 18 22 18
Wind_Direction
350 346 342 339 336 335 333 329 326 326 321 319 319 322 322 323 299 249 15 64 130 239 255 302 199 225 221 232 232 242 238 240 240 238 249 248 224 229 233 239 230 240 234 249 130
347 343 340 336 333 334 330 327 324 316 315 316 317 316 320 324 297 213 106 177 214 258 312 319 6 215 226 233 222 229 233 241 252 257 239 256 224 246 214 229 228 223 235 251 166
343 340 338 335 332 332 327 322 315 312 309 310 310 308 310 304 256 84 155 194 220 240 293 295 263 250 235 235 228 234 246 261 251 266 255 258 254 239 219 235 220 227 226 206 199
340 338 337 335 331 329 325 318 312 308 305 303 302 300 302 267 318 130 161 197 215 264 256 250 232 238 246 230 228 251 258 267 263 277 237 252 260 247 238 238 195 225 230 203 200
337 337 335 333 329 327 323 316 308 303 298 294 290 292 274 230 255 134 168 181 227 233 247 257 276 279 260 261 252 248 256 261 261 270 268 269 259 258 242 243 259 250 234 230 231
334 335 333 332 331 327 321 314 307 299 288 279 267 261 266 257 101 163 207 216 242 222 246 249 263 296 285 269 261 271 262 262 252 252 260 257 260 255 240 250 257 248 243 238 238
332 333 333 332 332 327 322 315 309 300 282 253 221 227 256 266 149 177 217 246 234 238 259 256 263 244 280 265 262 262 264 256 238 243 248 257 260 245 248 237 246 234 240 248 245
332 332 331 332 331 327 323 319 310 300 260 182 179 217 261 122 186 241 254 250 226 237 258 280 246 253 260 267 268 259 252 256 238 233 229 232 253 245 225 232 239 243 238 234 236
331 331 331 334 331 328 324 319 316 129 132 146 179 239 264 124 227 220 255 314 290 213 229 240 221 236 225 245 257 233 259 267 253 223 241 217 247 246 262 224 229 229 235 234 241
332 331 330 334 332 329 324 306 132 144 165 202 279 236 219 216 321 303 298 267 266 226 216 214 224 234 226 238 250 273 268 262 255 243 223 239 239 253 253 236 224 231 230 233 236
333 332 331 332 330 325 306 199 238 187 202 283 294 290 293 298 275 259 317 286 238 247 260 208 244 241 249 244 254 271 274 271 271 250 248 248 241 234 238 231 235 233 225 224 229
332 331 331 330 324 316 264 318 25 331 299 288 287 273 269 280 277 276 312 255 255 268 286 253 248 257 263 268 263 260 257 258 259 262 235 239 244 238 245 235 244 241 236 232 223
331 332 331 329 320 250 324 21 335 323 278 324 299 299 63 218 293 306 215 291 272 276 282 267 263 286 259 263 256 250 249 255 259 255 248 267 248 239 238 242 247 244 236 234 228
331 332 331 325 275 359 112 355 312 282 271 73 144 116 187 322 288 237 287 279 251 269 289 274 266 267 265 265 252 259 243 248 247 253 248 217 248 232 231 229 226 236 229 224 225
331 333 332 328 332 304 354 324 310 226 289 30 42 22 308 307 316 121 331 258 275 287 217 247 276 250 261 261 258 248 268 266 242 249 237 259 235 243 226 215 214 222 221 216 210
334 332 328 212 226 359 315 311 235 234 21 336 312 325 321 332 321 282 284 224 281 283 257 260 267 270 278 271 259 228 248 236 241 248 243 237 243 223 222 218 215 220 213 207 203
335 331 314 309 341 325 308 235 252 306 353 3 333 326 321 333 326 335 314 298 290 280 243 277 257 219 244 244 206 227 224 224 218 219 234 216 241 234 205 221 226 219 208 206 200
330 322 141 337 330 311 254 261 297 23 350 320 319 311 308 336 326 308 309 309 299 245 283 283 261 196 200 227 222 221 212 228 218 220 231 214 229 210 238 210 212 312 276 198 199
315 247 305 354 339 288 272 311 350 353 343 320 314 313 332 341 333 332 318 319 331 136 261 292 240 246 258 237 260 231 226 248 304 279 265 228 218 233 216 219 234 237 240 215 190
325 285 32 344 329 270 312 351 326 334 325 311 300 320 329 336 329 340 300 308 332 53 20 338 285 248 202 270 233 226 278 216 215 251 244 233 221 213 207 212 218 216 212 211 194
285 269 19 345 272 294 28 3 317 329 330 319 305 303 317 327 320 316 273 301 0 193 265 255 245 289 220 208 263 208 229 231 255 248 270 283 210 205 215 197 206 207 214 198 193
311 289 10 332 338 3 9 341 337 300 308 290 278 274 292 316 299 302 266 279 280 298 267 211 267 249 257 256 253 234 221 233 224 216 232 266 297 336 201 190 195 193 200 200 189
329 309 43 322 31 353 346 288 265 307 322 306 281 277 312 308 304 268 293 306 290 276 256 188 235 286 260 214 180 215 224 227 251 277 260 248 239 348 248 186 187 186 188 155 182
309 319 96 85 106 335 354 330 330 315 292 274 282 291 308 286 280 283 289 308 298 280 262 239 232 245 265 301 265 211 235 231 225 240 253 245 236 290 329 318 174 176 165 172 176
10 49 8 325 358 337 306 297 327 346 289 299 276 297 324 291 297 265 295 301 296 303 310 305 258 250 253 266 271 268 258 251 225 234 246 273 340 310 302 300 301 146 167 164 148
343 342 321 289 299 310 156 342 317 334 298 295 285 320 314 299 282 298 310 302 276 314 261 221 273 292 266 250 243 234 246 233 224 237 245 259 287 202 282 297 256 188 156 140 125
40 195 310 289 320 297 13 327 309 316 294 265 297 309 312 312 315 297 283 274 244 243 264 261 289 291 289 326 186 214 223 222 224 227 229 261 40 286 298 315 181 152 139 133 126